Location: Aldenham
(51.6667°N, 0.3500°W)
Time: 19:33:33
(UTC+00:00)

Altair - Pass Details

Date: 18 February 2026
Orbit: 1502 x 1682 km, 47.2° (Epoch: 10 March)

Event Time Altitude Azimuth Distance (km) Brightness Sun altitude
Rises 09:07:37 0° 279° (W) 4,688 9.5 14.9°
Reaches altitude 10° 09:10:41 10° 275° (W) 3,724 9.1 15.3°
Maximum altitude 09:19:48 57° 201° (SSW) 1,827 8.4 16.3°
Drops below altitude 10° 09:29:16 10° 126° (SE) 3,855 11.8 17.3°
Sets 09:32:30 0° 123° (ESE) 4,862 11.6 17.7°
